Regional Weather Roundup
Issued by NWS Upton, NY

Current Version | Previous Version | Graphics & Text | Print | Product List | Glossary Off
Versions: 1 2 3 4 5 6 7 8 9 10 11 12 13 14 15 16 17 18 19 20 21 22 23 24 25 26 27

000
ASUS41 KOKX 181508
RWROKX

REGIONAL WEATHER ROUNDUP
NATIONAL WEATHER SERVICE NEW YORK NY
1100 AM EDT FRI AUG 18 2017

NOTE: "FAIR" INDICATES FEW OR NO CLOUDS BELOW 12,000 FEET WITH NO
SIGNIFICANT WEATHER AND/OR OBSTRUCTIONS TO VISIBILITY.

NYZ071-072-176-178-NJZ106-104-181600-
NEW YORK CITY METRO AREA

CITY           SKY/WX    TMP DP  RH WIND       PRES   REMARKS
Central Park   CLOUDY    76  75  97 CALM      29.91S FOG
Bronx Bot Gard   N/A     75  72  88 E3        29.91R
LaGuardia APRT CLOUDY    76  75  97 VRB5      29.87S
Kennedy INTL   CLOUDY    77  77 100 S10       29.89S
Breezy Point     N/A     77 N/A N/A SW6         N/A
Newark/Liberty LGT RAIN  75  74  96 SW3       29.87F FOG
Teterboro      NOT AVBL
$$

NYZ177-179-078>081-181600-
LONG ISLAND NEW YORK

CITY           SKY/WX    TMP DP  RH WIND       PRES   REMARKS
Jones Beach      N/A     75 N/A N/A SW8G16      N/A
Matinecock PT    N/A     75 N/A N/A SW2         N/A
Farmingdale    CLOUDY    77  75  93 SW14G23   29.89F
MacArthur/ISP  HVY RAIN  76  75  97 SW12G22   29.90R VSB 1/2
Shirley        HVY RAIN  76  75  97 SE10      29.89  VSB 1
Mt Sinai Harb    N/A    N/A N/A N/A S10         N/A
Westhampton    TSTM      74  72  93 S6        29.93F FOG
East Hampton   LGT RAIN  73  71  95 S5        29.93R
Montauk          N/A     73  72  96 S8        29.94
$$

NYZ052-065-067-181600-
HUDSON VALLEY

CITY           SKY/WX    TMP DP  RH WIND       PRES   REMARKS
White Plains   LGT RAIN  75  74  96 VRB7      29.89  FOG
Larchmont Harb   N/A     73 N/A N/A S2          N/A
Croton On Huds   N/A     75 N/A N/A S2          N/A
Newburgh       NOT AVBL
Montgomery     NOT AVBL
Poughkeepsie   CLOUDY    76  70  82 S7        29.86R
Albany         NOT AVBL
$$

NJZ001-105-106-008-010-013-015-019>022-104-181600-
NEW JERSEY

CITY           SKY/WX    TMP DP  RH WIND       PRES   REMARKS
Newark/Liberty LGT RAIN  75  74  96 SW3       29.87F FOG
Teterboro      NOT AVBL
Caldwell       CLOUDY    73  73 100 CALM      29.89R FOG
Somerville     NOT AVBL
Linden         CLOUDY    75  73  93 CALM      29.88S FOG
Perth Amboy      N/A     77 N/A N/A S10         N/A
Sussex         CLOUDY    75  73  93 VRB3      29.88R
Andover          N/A     75  72  90 S6        29.89
Trenton        CLOUDY    77  76  96 S7        29.88  FOG
Millville      NOT AVBL
Atlantic City  CLOUDY    82  78  88 S8        29.88F HX  91
Wrightstown    LGT RAIN  77  77 100 S5        29.86S
Toms River     CLOUDY    77  75  94 SE3       29.89F
Belmar         LGT RAIN  77  75  93 S7        29.90S
$$

PAZ047>061-062-071-181600-
EASTERN PENNSYLVANIA

CITY           SKY/WX    TMP DP  RH WIND       PRES   REMARKS
Philadelphia   CLOUDY    80  75  84 S8        29.87
Allentown      NOT AVBL
Scranton       NOT AVBL
$$

CTZ002-004>006-009-010-012-RIZ004-006-007-MAZ004-011-015-181600-
SOUTHERN NEW ENGLAND
 IN CT

CITY           SKY/WX    TMP DP  RH WIND       PRES   REMARKS
Bradley INTL   CLOUDY    79  70  73 S14       29.89R
Hartford       CLOUDY    79  70  74 S12G21    29.88
Danbury        CLOUDY    76  73  91 VRB5      29.90
Wtrbury/Oxford NOT AVBL
Norwalk Harbor   N/A     73 N/A N/A SE12        N/A
Bridgeport     LGT RAIN  75  73  94 SE8       29.89S FOG
Meriden        NOT AVBL
New Haven      RAIN      75  73  93 S6        29.91  FOG
Chester        NOT AVBL
Groton         CLOUDY    73  70  90 S12       29.92F
Wilimantic     CLOUDY    77  70  79 S8        29.92S

 IN RI

CITY           SKY/WX    TMP DP  RH WIND       PRES   REMARKS
Providence     NOT AVBL
Block Island   PTSUNNY   74  71  91 S14       29.94
Westerly       CLOUDY    73  71  93 S8        29.94F
 IN MA

CITY           SKY/WX    TMP DP  RH WIND       PRES   REMARKS
Boston         CLOUDY    75  69  81 S12       29.91
Worcester      NOT AVBL
Westfield      CLOUDY    75  71  87 S9        29.88S
Provincetown   FAIR      75  69  81 S10G18    29.96
Nantucket      PTSUNNY   70  69  97 SE15      29.98
$$

ANZ330-335-338-340-345-350-353-355-181600-
COASTAL MARINE OBSERVATIONS


STATION/POSITION TIME  SKY/WX   TEMP    WIND        PRES    VSBY  WAVE
                                AIR SEA DIR/SP/G                  HT/PER
                 (UTC)          (F)     (DEG/KT/KT) (MB)    (MI)  (FT/S)
NY HARB ENTRANCE NOT AVBL
GREAT SOUTH BAY  1430            75 78  190/ 17/ 19   N/A
23 SSW MONTAUK P NOT AVBL
15 E BARNEGAT LI 1330               76                N/A           4/ 5
HUDSON CANYON    NOT AVBL
KINGS POINT      1430            74 74  190/  5/  5 1011.6
EXECUTION ROCKS  NOT AVBL
WESTERN LI SOUND NOT AVBL
CENTRAL LI SOUND NOT AVBL
EASTERN LI SOUND NOT AVBL
ROBBINS REEF     1430                    CALM  /  1 1012.3
$$


>>>>>>>>>>>>>>>>>>>>>>>>>>>> KEY <<<<<<<<<<<<<<<<<<<<<<<<<<<
>                                                          <
>     SKY/WX - Sky Condition/Present Weather               <
>     TMP    - Temperature in Fahrenheit                   <
>     DP     - Dew Point in Fahrenheit                     <
>     RH     - Relative Humidity in Percent                <
>     WIND   - Direction (from) and Speed in MPH           <
>     PRES   - Mean Sea Level Pressure (inches of Hg)      <
>     WCI    - Wind Chill Index                            <
>     VSB    - VISIBILITY IN MILES                         <
>     HX     - HEAT INDEX                                  <
>     TC     - TEMPERATURE IN CELSIUS                      <
>     VRB    - VARIABLE WIND DIRECTION                     <
>                                                          <
>>>>>>>>>>>>>>>>>>>>>>>>>>>> KEY <<<<<<<<<<<<<<<<<<<<<<<<<<<




USA.gov is the U.S. government's official web portal to all federal, state and local government web resources and services.